Time,TemperatureF,DewpointF,PressureIn,WindDirection,WindDirectionDegrees,WindSpeedMPH,WindSpeedGustMPH,Humidity,HourlyPrecipIn,Conditions,Clouds,dailyrainin,SoftwareType,DateUTC
2014-07-11 00:01:00,73.3,72.7,30.13,SSW,194,0.0,0.0,98,0.00,,---,0.77,VWS V15.00,2014-07-11 04:01:00,
2014-07-11 00:16:00,73.2,72.6,30.13,SSW,194,0.0,0.0,98,0.00,,---,0.00,VWS V15.00,2014-07-11 04:16:00,
2014-07-11 00:31:00,73.2,72.9,30.12,SSW,194,0.0,0.0,99,0.00,,---,0.00,VWS V15.00,2014-07-11 04:31:00,
2014-07-11 00:46:00,73.3,73.0,30.12,SSW,194,0.0,0.0,99,0.00,,---,0.00,VWS V15.00,2014-07-11 04:46:00,
2014-07-11 01:01:00,73.3,73.0,30.12,SSW,194,0.0,0.0,99,0.00,,---,0.00,VWS V15.00,2014-07-11 05:01:00,
2014-07-11 01:16:00,73.1,72.8,30.11,SSW,194,0.0,0.0,99,0.00,,---,0.00,VWS V15.00,2014-07-11 05:16:00,
2014-07-11 01:31:00,72.9,72.3,30.10,SSW,194,0.0,0.0,98,0.00,,---,0.00,VWS V15.00,2014-07-11 05:31:00,
2014-07-11 01:46:00,72.9,72.6,30.10,SSW,194,0.0,0.0,99,0.00,,---,0.00,VWS V15.00,2014-07-11 05:46:00,
2014-07-11 02:01:00,73.0,72.7,30.10,SSW,194,0.0,0.0,99,0.00,,---,0.00,VWS V15.00,2014-07-11 06:01:00,
2014-07-11 02:16:00,73.1,72.8,30.10,SSW,194,0.0,0.0,99,0.00,,---,0.00,VWS V15.00,2014-07-11 06:16:00,
2014-07-11 02:31:00,73.0,72.7,30.10,SSW,194,0.0,0.0,99,0.00,,---,0.00,VWS V15.00,2014-07-11 06:31:00,
2014-07-11 02:46:00,72.9,72.6,30.09,SSW,194,0.0,0.0,99,0.00,,---,0.00,VWS V15.00,2014-07-11 06:46:00,
2014-07-11 03:01:00,72.7,72.4,30.09,SSW,194,0.0,0.0,99,0.00,,---,0.00,VWS V15.00,2014-07-11 07:01:00,
2014-07-11 03:16:00,72.4,72.1,30.08,SSW,194,0.0,0.0,99,0.00,,---,0.00,VWS V15.00,2014-07-11 07:16:00,
2014-07-11 03:31:00,72.2,71.6,30.08,SSW,194,0.0,0.0,98,0.00,,---,0.00,VWS V15.00,2014-07-11 07:31:00,
2014-07-11 03:46:00,72.0,71.7,30.08,SSW,194,0.0,0.0,99,0.00,,---,0.00,VWS V15.00,2014-07-11 07:46:00,
2014-07-11 04:01:00,71.9,71.6,30.08,SSW,194,0.0,0.0,99,0.00,,---,0.00,VWS V15.00,2014-07-11 08:01:00,
2014-07-11 04:16:00,71.8,71.5,30.08,SSW,194,0.0,0.0,99,0.00,,---,0.00,VWS V15.00,2014-07-11 08:16:00,
2014-07-11 04:31:00,71.9,71.6,30.08,SSW,194,0.0,0.0,99,0.00,,---,0.00,VWS V15.00,2014-07-11 08:31:00,
2014-07-11 04:46:00,71.9,71.6,30.08,SSW,194,0.0,0.0,99,0.00,,---,0.00,VWS V15.00,2014-07-11 08:46:00,